Renton, WA

8:42 PM PDT on June 24, 2017 (GMT -0700)
Renton Municipal

Weather History for KRNT - February, 2014

Change the Weather History Date:

Saturday, February 22, 2014

  Actual Average Record
Temperature  
Mean Temperature 38 °F -  
Max Temperature 41 °F 49 °F 62 °F (2009)
Min Temperature 36 °F 35 °F 28 °F (2005)
Degree Days  
Heating Degree Days 26    
Moisture  
Dew Point 36 °F    
Average Humidity 92    
Maximum Humidity 100    
Minimum Humidity 76    
Precipitation  
Precipitation 0.05 in - - ()
Sea Level Pressure  
Sea Level Pressure 30.17 in    
Wind  
Wind Speed 3 mph (SE)    
Max Wind Speed 7 mph    
Max Gust Speed -    
Visibility 9 miles    
Events Rain    
Averages and records for this station are not official NWS values.
T = Trace of Precipitation, MM = Missing Value Source: NWS Daily Summary

Daily Weather History Graph

Daily Weather History Graph

Search for Another Location

Airport or City:

Trip Planner

Search our weather history database for the weather conditions in past years. The results will help you decide how hot, cold, wet, or windy it might be!

Date:

Astronomy

Feb. 22, 2014 Rise Set
Actual Time 7:01 AM PST 5:43 PM PST
Civil Twilight 6:30 AM PST 6:14 PM PST
Nautical Twilight 5:55 AM PST 6:50 PM PST
Astronomical Twilight 5:19 AM PST 7:25 PM PST
Moon 1:13 AM PST (2/22) 10:47 AM PST (2/22)
Length of Visible Light 11h 43m
Length of Day
10h 41m
Waning Gibbous, 49% of the Moon is Illuminated
Feb 22
Waning Gibbous
Mar 1
New
Mar 8
First Quarter
Mar 16
Full
Mar 23
Last Quarter

Hourly Weather History & Observations

Time (PST) Temp. Windchill Dew Point Humidity Pressure Visibility Wind Dir Wind Speed Gust Speed Precip Events Conditions
12:53 AM 37.9 °F - 36.0 °F 93% 30.26 in 10.0 mi Calm Calm - N/A   Overcast
1:53 AM 37.9 °F - 37.0 °F 97% 30.26 in 8.0 mi Calm Calm - N/A   Overcast
2:53 AM 37.0 °F - 36.0 °F 96% 30.25 in 8.0 mi Calm Calm - N/A   Overcast
3:53 AM 37.0 °F - 36.0 °F 96% 30.25 in 8.0 mi Calm Calm - N/A   Overcast
4:53 AM 36.0 °F 33.3 °F 35.1 °F 97% 30.24 in 10.0 mi SE 3.5 mph - N/A   Overcast
5:07 AM 36.0 °F 33.3 °F 35.1 °F 97% 30.22 in 10.0 mi ESE 3.5 mph - N/A   Overcast
5:53 AM 37.0 °F 34.5 °F 36.0 °F 96% 30.23 in 10.0 mi ESE 3.5 mph - N/A   Overcast
6:06 AM 36.0 °F 33.3 °F 36.0 °F 100% 30.21 in 10.0 mi ESE 3.5 mph - N/A   Overcast
6:28 AM 37.0 °F 34.5 °F 36.0 °F 96% 30.21 in 9.0 mi East 3.5 mph - N/A   Overcast
6:43 AM 37.0 °F 33.3 °F 36.0 °F 96% 30.21 in 7.0 mi East 4.6 mph - 0.00 in Rain Light Rain
6:53 AM 37.0 °F 34.5 °F 36.0 °F 96% 30.22 in 7.0 mi East 3.5 mph - 0.00 in Rain Light Rain
7:53 AM 37.0 °F 33.3 °F 35.1 °F 93% 30.22 in 6.0 mi SSE 4.6 mph - 0.00 in Rain Light Rain
8:53 AM 36.0 °F 31.1 °F 35.1 °F 97% 30.21 in 3.0 mi SSE 5.8 mph - 0.00 in Rain Light Rain
9:53 AM 37.0 °F 31.6 °F 35.1 °F 93% 30.21 in 7.0 mi SSE 6.9 mph - 0.01 in Rain Light Rain
10:03 AM 37.0 °F 33.3 °F 35.1 °F 93% 30.20 in 6.0 mi SSE 4.6 mph - 0.00 in Rain Light Rain
10:53 AM 37.9 °F 34.4 °F 36.0 °F 93% 30.22 in 6.0 mi South 4.6 mph - 0.00 in Rain Light Rain
11:53 AM 39.0 °F 34.0 °F 36.0 °F 89% 30.21 in 10.0 mi SSE 6.9 mph - 0.00 in   Overcast
12:08 PM 39.0 °F 35.7 °F 35.1 °F 86% 30.19 in 10.0 mi SSE 4.6 mph - N/A   Overcast
12:45 PM 39.9 °F 37.8 °F 34.0 °F 79% 30.18 in 10.0 mi South 3.5 mph - N/A   Overcast
12:53 PM 41.0 °F - 34.0 °F 76% 30.19 in 10.0 mi Calm Calm - N/A   Overcast
1:53 PM 41.0 °F 36.4 °F 34.0 °F 76% 30.17 in 10.0 mi SSE 6.9 mph - N/A   Overcast
2:24 PM 39.9 °F 35.8 °F 35.1 °F 83% 30.15 in 10.0 mi South 5.8 mph - 0.00 in Rain Light Rain
2:53 PM 41.0 °F 39.0 °F 35.1 °F 79% 30.16 in 10.0 mi SSE 3.5 mph - 0.00 in   Overcast
3:15 PM 41.0 °F 36.4 °F 36.0 °F 82% 30.14 in 9.0 mi SSE 6.9 mph - N/A   Overcast
3:53 PM 39.0 °F 34.8 °F 37.9 °F 96% 30.16 in 5.0 mi East 5.8 mph - 0.01 in Rain Light Rain
4:53 PM 39.9 °F 35.8 °F 37.0 °F 89% 30.14 in 8.0 mi SE 5.8 mph - 0.01 in Rain Light Rain
5:02 PM 39.9 °F 36.7 °F 37.0 °F 89% 30.12 in 9.0 mi SE 4.6 mph - 0.00 in Rain Light Rain
5:53 PM 39.0 °F 35.7 °F 37.0 °F 93% 30.12 in 7.0 mi SE 4.6 mph - 0.01 in Rain Light Rain
6:42 PM 39.0 °F 36.8 °F 37.0 °F 93% 30.09 in 9.0 mi SSE 3.5 mph - 0.00 in Rain Light Rain
6:53 PM 37.9 °F 34.4 °F 37.0 °F 97% 30.11 in 7.0 mi SSE 4.6 mph - 0.01 in Rain Light Rain
7:53 PM 37.9 °F 33.5 °F 37.0 °F 97% 30.09 in 9.0 mi ESE 5.8 mph - 0.00 in   Overcast
8:53 PM 39.0 °F 35.7 °F 37.0 °F 93% 30.08 in 10.0 mi ESE 4.6 mph - 0.00 in   Overcast
9:33 PM 39.0 °F 36.8 °F 37.0 °F 93% 30.07 in 10.0 mi ESE 3.5 mph - 0.00 in   Overcast
9:53 PM 39.0 °F 34.8 °F 37.0 °F 93% 30.08 in 10.0 mi ESE 5.8 mph - 0.00 in   Overcast
10:33 PM 39.9 °F 35.8 °F 37.0 °F 89% 30.06 in 10.0 mi SE 5.8 mph - N/A   Overcast
10:53 PM 39.0 °F 35.7 °F 37.0 °F 93% 30.07 in 10.0 mi ESE 4.6 mph - N/A   Overcast
11:53 PM 39.0 °F 36.8 °F 37.0 °F 93% 30.06 in 10.0 mi Variable 3.5 mph - N/A   Overcast